Погода в Донском

Россия / Калининградская область     54°56′18″N   19°58′11″E
темп.,
°C
ветер,
м/с
пор.,
м/с
влажн.,
%
обл.,
%
осадки,
мм/ч
давл.,
гПа
погр.,
м
15 августа, пн
пн1523:00+22вюв710855 0.0 1012150
02:00+21вюв710878 0.4 1012218
05:00+20вюв79845 0.0 1011217
08:00+21вюв79816 0.0 1011230
11:00+23в56755 0.0 101173
14:00+24в567242 0.0 101073
17:00+26вюв676121 0.0 100967
20:00+25вюв812655 0.0 1008108
16 августа, вт
вт1623:00+23вюв5879100 0.1 101093
02:00+22вюв698384 0.1 1010131
05:00+21юв6982100 0.0 1009145
08:00+22юв577429 0.0 1010100
11:00+25ююв33667 0.0 101129
14:00+25с11715 0.0 101052
17:00+26в336318 0.0 101056
20:00+25вюв9126627 0.0 1011114
17 августа, ср
ср1723:00+23юв4580100 0.0 101266
02:00+22юв458095 0.0 101257
05:00+21ююв34835 0.0 101262
08:00+22юв33801 0.0 101337
11:00+22всв55795 0.0 101490
14:00+22св56804 0.0 101377
17:00+23ссв45790 0.1 101355
20:00+23св57825 0.2 101372
18 августа, чт
чт1823:00+22всв68887 1.2 101495
02:00+21вюв45870 1.4 101466
05:00+21юв45815 0.9 101469
08:00+21юв337836 0.9 101450
11:00+23всв33738 0.0 101545
14:00+23св68807 0.0 1014105
17:00+24всв7107160 0.0 101397
20:00+23в710759 0.0 101392
19 августа, пт
пт1923:00+22в56825 0.0 101364
02:00+21вюв68845 0.2 1013118
05:00+21вюв68834 0.0 1013126
08:00+21вюв57815 0.0 1013124
11:00+24в56701 0.0 101363
14:00+24всв78700 0.0 1012100
17:00+25в1013615 0.0 1011130
20:00+24в9136638 0.0 1011136